This is the latest recevied weather packets stored in our database for station/object DO7ZT-13. If no packets are shown the sender has not sent any weather packets the latest 10 day(s).
| Time | Temp. | Humidity | Pressure | Rain* | Wind** | Luminosity | Snow |
|---|---|---|---|---|---|---|---|
| 1777404622 | 7.78° C | 38% | 1024 hPa | 0 mm | 0.45 m/s, 108° | - | - |
| 1777404309 | 7.78° C | 36% | 1024 hPa | 0 mm | 0.89 m/s, 66° | - | - |
| 1777404022 | 7.78° C | 37% | 1024 hPa | 0 mm | 1.34 m/s, 66° | - | - |
| 1777403709 | 7.78° C | 37% | 1024 hPa | 0 mm | 0.89 m/s, 90° | - | - |
| 1777403422 | 7.78° C | 36% | 1024 hPa | 0 mm | 0.45 m/s, 66° | - | - |
| 1777403110 | 7.78° C | 38% | 1024 hPa | 0 mm | 0.45 m/s, 60° | - | - |
| 1777402834 | 7.78° C | 39% | 1023.8 hPa | 0 mm | 0.45 m/s, 77° | - | - |
| 1777402522 | 7.78° C | 38% | 1023.8 hPa | 0 mm | 0.89 m/s, 66° | - | - |
| 1777402209 | 7.78° C | 38% | 1023.8 hPa | 0 mm | 0.45 m/s, 66° | - | - |
| 1777401922 | 7.78° C | 37% | 1023.6 hPa | 0 mm | 0.89 m/s, 66° | - | - |
| 1777401609 | 7.78° C | 37% | 1023.6 hPa | 0 mm | 0.45 m/s, 42° | - | - |
| 1777401322 | 8.89° C | 37% | 1023.6 hPa | 0 mm | 0.45 m/s, 30° | - | - |
| 1777401009 | 8.89° C | 36% | 1023.5 hPa | 0 mm | 0.45 m/s, 60° | - | - |
| 1777400722 | 8.89° C | 36% | 1023.5 hPa | 0 mm | 0.89 m/s, 78° | - | - |
| 1777400409 | 8.89° C | 35% | 1023.5 hPa | 0 mm | 0.45 m/s, 72° | - | - |
| 1777400122 | 8.89° C | 34% | 1023.2 hPa | 0 mm | 0.89 m/s, 66° | - | - |
| 1777399809 | 8.89° C | 35% | 1023.2 hPa | 0 mm | 0.89 m/s, 54° | - | - |
| 1777399522 | 10° C | 35% | 1023.2 hPa | 0 mm | 0.45 m/s, 48° | - | - |
| 1777399209 | 10° C | 34% | 1023.1 hPa | 0 mm | 0.89 m/s, 0° | - | - |
| 1777398922 | 10° C | 34% | 1023.1 hPa | 0 mm | 0 m/s | - | - |
| 1777398609 | 11.11° C | 33% | 1023.1 hPa | 0 mm | 0 m/s | - | - |
| 1777398322 | 11.11° C | 35% | 1022.9 hPa | 0 mm | 0.45 m/s, 294° | - | - |
| 1777398009 | 11.11° C | 32% | 1022.9 hPa | 0 mm | 0.45 m/s, 354° | - | - |
| 1777397722 | 11.11° C | 34% | 1022.9 hPa | 0 mm | 0.45 m/s, 24° | - | - |
| 1777397409 | 11.11° C | 31% | 1022.8 hPa | 0 mm | 0.45 m/s, 60° | - | - |
* Rain latest hour (hover to see other rain measurements)
** Current wind speed in m/s (hover to see current wind gust speed)